Flag for U.S.A. Weather past 2 weeks in Pullman, Washington, U.S.A.

Now
81 °F

Sunny.


Feels Like: 80 °F
Forecast: 50 / 80 °F
Wind: 12 mph from West

Location: Pullman / Moscow Regional Airport

Current Time: Aug 28, 2014 at 5:21:58 PM

Latest Report: Aug 28, 2014 at 4:53 PM


Visibility: 10 mi

Pressure: 29.96 "Hg

Humidity: 26%

Dew point: 43 °F

Location of PullmanLocation

Historic Weather in Pullman — Graph

°F

Pullman temperature yesterday

Maximum temperature yesterday: 87 °F (at 2:53 PM)
Minimum temperature yesterday: 52 °F (at 1:53 AM)
Average temperature yesterday: 71 °F

Past Weeks' High & Low Weather Summary

 TemperatureHumidityPressure
High89 °F (Aug 18, 2:53 PM)93% (Aug 15, 1:53 AM)30.13 "Hg (Aug 15, 1:53 AM)
Low45 °F (Aug 25, 5:53 AM)19% (Aug 26, 4:53 PM)29.67 "Hg (Aug 19, 6:53 PM)
Average67 °F54%29.97 "Hg
* Reported Aug 13 3:53 PM — Aug 28 3:53 PM, Pullman, Weather by CustomWeather, © 2014

Note: Actual official high and low records may vary slightly from our data, if they occured in-between our weather recording intervals... More about our weather records

Advertising

Pullman weather history for previous 24 hours

 ConditionsComfort  
Time TempWeatherWind HumidityBarometerVisibility
3:53 PM
Aug 28
80 °FSunny.12 mph25%29.97 "Hg10 mi
2:53 PM79 °FSunny.18 mph26%29.98 "Hg10 mi
1:53 PM80 °FSunny.14 mph29%29.98 "Hg10 mi
12:53 PM82 °FSunny.16 mph31%30.00 "Hg10 mi
11:53 AM80 °FSunny.16 mph34%30.01 "Hg10 mi
10:53 AM77 °FSunny.21 mph39%30.03 "Hg10 mi
9:53 AM76 °FSunny.14 mph42%30.02 "Hg10 mi
8:53 AM73 °FSunny.18 mph46%30.02 "Hg10 mi
7:53 AM71 °FSunny.13 mph51%30.01 "Hg10 mi
6:53 AM68 °FClear.12 mph57%30.00 "Hg10 mi
5:53 AM68 °FClear.14 mph57%29.98 "Hg10 mi
4:53 AM68 °FClear.8 mph55%29.98 "Hg10 mi
3:53 AM69 °FClear.16 mph53%29.97 "Hg10 mi
2:53 AM71 °FClear.15 mph47%29.96 "Hg10 mi
1:53 AM65 °FClear.3 mph51%29.96 "Hg10 mi
12:53 AM62 °FClear.No wind54%29.95 "Hg10 mi
11:53 PM
Aug 27
62 °FClear.No wind52%29.95 "Hg10 mi
10:53 PM61 °FClear.No wind52%29.96 "Hg10 mi
9:53 PM63 °FClear.No wind48%29.97 "Hg10 mi
8:53 PM67 °FClear.No wind44%29.97 "Hg8 mi
7:53 PM76 °FSunny.No wind33%29.96 "Hg8 mi
6:53 PM83 °FSunny.5 mph26%29.96 "Hg10 mi
5:53 PM86 °FSunny.9 mph21%29.96 "Hg10 mi
Weather by CustomWeather, © 2014

See weather overviewHow to use our weather pages